| time (UTC) | temp F | wind direction | speed MPH | gust MPH | rain 1hr in | rain 24hr in | rain mn in | humidity % | barometer mb |
| 20260505022317 | 55 | 178 | 0.0 | 2.0 | 0.00 | 0.00 | 0.00 | 74 | 1009.0 |
| 20260505020832 | 56 | 178 | 0.0 | 2.0 | 0.00 | 0.00 | 0.00 | 72 | 1008.9 |
| 20260505015831 | 56 | 178 | 0.0 | 1.0 | 0.00 | 0.00 | 0.00 | 71 | 1008.8 |
| 20260505014832 | 57 | 178 | 0.0 | 2.0 | 0.00 | 0.00 | 0.00 | 70 | 1008.7 |
| 20260505013830 | 57 | 178 | 0.0 | 2.0 | 0.00 | 0.00 | 0.00 | 68 | 1008.8 |
| 20260505012829 | 58 | 178 | 0.0 | 1.0 | 0.00 | 0.00 | 0.00 | 67 | 1008.6 |
| 20260505012750 | 58 | 178 | 0.0 | 3.0 | 0.00 | 0.00 | 0.00 | 65 | 1008.5 |
| 20260505010828 | 59 | 178 | 1.0 | 5.0 | 0.00 | 0.00 | 0.00 | 64 | 1008.3 |
| 20260505005829 | 59 | 178 | 1.0 | 4.0 | 0.00 | 0.00 | 0.00 | 64 | 1008.1 |
| 20260505004830 | 60 | 178 | 0.0 | 2.0 | 0.00 | 0.00 | 0.00 | 63 | 1008.0 |
| 20260505003825 | 60 | 178 | 1.0 | 3.0 | 0.00 | 0.00 | 0.00 | 62 | 1007.9 |
| 20260505002826 | 60 | 178 | 1.0 | 4.0 | 0.00 | 0.00 | 0.00 | 61 | 1007.7 |
| 20260505001822 | 61 | 178 | 1.0 | 3.0 | 0.00 | 0.00 | 0.00 | 60 | 1007.6 |
| 20260505000822 | 61 | 178 | 1.0 | 6.0 | 0.00 | 0.00 | 0.00 | 59 | 1007.4 |
| 20260504235823 | 62 | 267 | 1.0 | 2.0 | 0.00 | 0.00 | 0.00 | 59 | 1007.2 |
| 20260504234824 | 63 | 267 | 0.0 | 3.0 | 0.00 | 0.00 | 0.00 | 58 | 1007.1 |
| 20260504233824 | 63 | 267 | 1.0 | 5.0 | 0.00 | 0.00 | 0.00 | 56 | 1006.9 |
| 20260504232822 | 64 | 188 | 1.0 | 4.0 | 0.00 | 0.00 | 0.00 | 54 | 1006.7 |
| 20260504231823 | 65 | 336 | 1.0 | 10.0 | 0.00 | 0.00 | 0.00 | 53 | 1006.5 |
| 20260504230817 | 65 | 188 | 2.0 | 5.0 | 0.00 | 0.00 | 0.00 | 51 | 1006.3 |
| 20260504225817 | 66 | 185 | 2.0 | 8.0 | 0.00 | 0.00 | 0.00 | 50 | 1006.3 |
| 20260504224816 | 66 | 213 | 3.0 | 9.0 | 0.00 | 0.00 | 0.00 | 50 | 1006.2 |
| 20260504223818 | 66 | 189 | 1.0 | 4.0 | 0.00 | 0.00 | 0.00 | 49 | 1006.2 |
| 20260504222816 | 67 | 31 | 1.0 | 6.0 | 0.00 | 0.00 | 0.00 | 48 | 1006.1 |
| 20260504221817 | 67 | 179 | 2.0 | 7.0 | 0.00 | 0.00 | 0.00 | 48 | 1006.1 |
| 20260504220817 | 68 | 170 | 3.0 | 7.0 | 0.00 | 0.00 | 0.00 | 47 | 1006.2 |
| 20260504220731 | 68 | 170 | 3.0 | 9.0 | 0.00 | 0.00 | 0.00 | 46 | 1006.0 |
| 20260504215732 | 70 | 190 | 2.0 | 10.0 | 0.00 | 0.00 | 0.00 | 44 | 1006.1 |
| 20260504214725 | 71 | 308 | 3.0 | 8.0 | 0.00 | 0.00 | 0.00 | 37 | 1006.0 |
| 20260504213246 | 71 | 190 | 1.0 | 4.0 | 0.00 | 0.00 | 0.00 | 37 | 1006.1 |
| 20260504211810 | 71 | 190 | 1.0 | 4.0 | 0.00 | 0.00 | 0.00 | 35 | 1006.0 |
| 20260504210809 | 71 | 191 | 2.0 | 6.0 | 0.00 | 0.00 | 0.00 | 36 | 1006.0 |
| 20260504205813 | 71 | 189 | 1.0 | 7.0 | 0.00 | 0.00 | 0.00 | 36 | 1006.1 |
| 20260504204811 | 72 | 180 | 2.0 | 7.0 | 0.00 | 0.00 | 0.00 | 36 | 1005.8 |
| 20260504203811 | 72 | 144 | 2.0 | 8.0 | 0.00 | 0.00 | 0.00 | 37 | 1006.1 |
| 20260504203245 | 72 | 175 | 4.0 | 7.0 | 0.00 | 0.00 | 0.00 | 35 | 1006.1 |
| 20260504201811 | 72 | 246 | 2.0 | 7.0 | 0.00 | 0.00 | 0.00 | 37 | 1006.1 |
| 20260504200805 | 71 | 235 | 3.0 | 8.0 | 0.00 | 0.00 | 0.00 | 37 | 1006.2 |
| 20260504195803 | 71 | 220 | 3.0 | 9.0 | 0.00 | 0.00 | 0.00 | 36 | 1006.3 |
| 20260504195242 | 71 | 270 | 3.0 | 8.0 | 0.00 | 0.00 | 0.00 | 35 | 1006.2 |
| 20260504194724 | 71 | 245 | 2.0 | 7.0 | 0.00 | 0.00 | 0.00 | 36 | 1006.3 |
| 20260504192803 | 72 | 238 | 2.0 | 6.0 | 0.00 | 0.00 | 0.00 | 36 | 1006.3 |
| 20260504191801 | 72 | 269 | 3.0 | 11.0 | 0.00 | 0.00 | 0.00 | 36 | 1006.3 |
| 20260504191155 | 71 | 298 | 3.0 | 11.0 | 0.00 | 0.00 | 0.00 | 36 | 1006.7 |
| 20260504190834 | 72 | 234 | 2.0 | 6.0 | 0.00 | 0.00 | 0.00 | 37 | 1006.5 |
| 20260504184803 | 72 | 189 | 3.0 | 10.0 | 0.00 | 0.00 | 0.00 | 36 | 1006.6 |
| 20260504183805 | 72 | 273 | 2.0 | 5.0 | 0.00 | 0.00 | 0.00 | 38 | 1006.6 |
| 20260504182801 | 71 | 236 | 3.0 | 12.0 | 0.00 | 0.00 | 0.00 | 37 | 1006.8 |
| 20260504181803 | 71 | 271 | 2.0 | 8.0 | 0.00 | 0.00 | 0.00 | 37 | 1006.9 |
| 20260504180800 | 70 | 138 | 2.0 | 7.0 | 0.00 | 0.00 | 0.00 | 38 | 1007.0 |
| 20260504175800 | 70 | 263 | 2.0 | 7.0 | 0.00 | 0.00 | 0.00 | 40 | 1007.1 |
| 20260504174800 | 70 | 233 | 3.0 | 10.0 | 0.00 | 0.00 | 0.00 | 38 | 1007.2 |
| 20260504173802 | 70 | 268 | 3.0 | 14.0 | 0.00 | 0.00 | 0.00 | 38 | 1007.3 |
| 20260504172801 | 70 | 257 | 2.0 | 8.0 | 0.00 | 0.00 | 0.00 | 39 | 1007.4 |
| 20260504171759 | 69 | 272 | 3.0 | 7.0 | 0.00 | 0.00 | 0.00 | 39 | 1007.5 |
| 20260504170800 | 68 | 264 | 2.0 | 8.0 | 0.00 | 0.00 | 0.00 | 39 | 1007.6 |
| 20260504160247 | 66 | 273 | 4.0 | 11.0 | 0.00 | 0.00 | 0.00 | 39 | 1008.4 |
| 20260504150759 | 64 | 182 | 4.0 | 12.0 | 0.00 | 0.00 | 0.00 | 42 | 1008.9 |
| 20260504140749 | 61 | 185 | 3.0 | 8.0 | 0.00 | 0.00 | 0.00 | 47 | 1009.5 |
| 20260504130745 | 57 | 277 | 2.0 | 6.0 | 0.00 | 0.00 | 0.00 | 51 | 1010.1 |
| 20260504081740 | 39 | 235 | 0.0 | 0.0 | 0.00 | 0.00 | 0.00 | 87 | 1009.5 |
| 20260504080740 | 39 | 235 | 0.0 | 1.0 | 0.00 | 0.00 | 0.00 | 87 | 1009.5 |
| 20260504050732 | 39 | 235 | 0.0 | 0.0 | 0.00 | 0.00 | 0.00 | 84 | 1009.8 |
| 20260504045732 | 39 | 235 | 0.0 | 1.0 | 0.00 | 0.00 | 0.00 | 83 | 1009.8 |
| 20260504044732 | 39 | 235 | 0.0 | 0.0 | 0.00 | 0.00 | 0.00 | 82 | 1009.7 |
| 20260504044208 | 39 | 235 | 0.0 | 1.0 | 0.00 | 0.00 | 0.00 | 80 | 1009.8 |
| 20260504042734 | 40 | 235 | 0.0 | 2.0 | 0.00 | 0.00 | 0.00 | 79 | 1009.8 |
| 20260504041732 | 40 | 235 | 0.0 | 1.0 | 0.00 | 0.00 | 0.00 | 79 | 1009.7 |
| 20260504040730 | 40 | 235 | 0.0 | 1.0 | 0.00 | 0.00 | 0.00 | 80 | 1009.7 |
| 20260504035730 | 40 | 235 | 0.0 | 1.0 | 0.00 | 0.00 | 0.00 | 79 | 1009.6 |
| 20260504034728 | 41 | 235 | 0.0 | 1.0 | 0.00 | 0.00 | 0.00 | 79 | 1009.7 |
| 20260504033728 | 41 | 235 | 0.0 | 0.0 | 0.00 | 0.00 | 0.00 | 78 | 1009.6 |
| 20260504033207 | 41 | 235 | 0.0 | 0.0 | 0.00 | 0.00 | 0.00 | 78 | 1009.5 |
| 20260504032213 | 42 | 235 | 0.0 | 1.0 | 0.00 | 0.00 | 0.00 | 77 | 1009.4 |
| 20260504030728 | 42 | 235 | 0.0 | 1.0 | 0.00 | 0.00 | 0.00 | 77 | 1009.4 |
| 20260504025728 | 42 | 235 | 0.0 | 2.0 | 0.00 | 0.00 | 0.00 | 76 | 1009.4 |
| 20260504024729 | 43 | 235 | 0.0 | 1.0 | 0.00 | 0.00 | 0.00 | 76 | 1009.4 |
| 20260504024215 | 43 | 235 | 0.0 | 2.0 | 0.00 | 0.00 | 0.00 | 74 | 1009.5 |